Regional Weather Roundup
Issued by NWS

Home | Current Version | Previous Version | Text Only | Print | Product List | Glossary Off
Versions: 1 2 3 4 5 6 7 8 9 10 11 12 13 14 15 16 17 18 19 20 21 22 23 24 25 26 27 28 29 30 31 32 33 34 35 36 37 38 39 40 41 42 43 44 45 46 47 48 49 50

000
ASUS45 KSLC 151810
RWRUT

UTAH REGIONAL WEATHER ROUNDUP
NATIONAL WEATHER SERVICE SALT LAKE CITY UT
1100 AM MST FRI DEC 15 2017

UTZ001>011-023>025-151900-

NORTHERN UTAH

CITY           SKY/WX    TMP DP  RH WIND       PRES   REMARKS
BRIGHAM CITY   SUNNY     28  24  84 CALM      30.32F
DUGWAY         MOSUNNY   33  21  62 VRB2      30.29F
6HR MIN TEMP:   7; 6HR MAX TEMP:  33;

HILL AFB       SUNNY     32  18  57 E7        30.29F WCI  25
LOGAN          MOSUNNY   24  19  81 W5        30.32F HAZE    WCI  18
OGDEN          SUNNY     34  21  59 CALM      30.30F
SALT LAKE CITY MOSUNNY   38  25  59 N3        30.30S
TOOELE VALLEY  SUNNY     34  27  75 SW8       30.32R WCI  27
WENDOVER       SUNNY     31  22  69 SE3       30.32S
HEBER CITY       N/A     27  23  86 CALM      30.28F FOG
WEST JORDAN    SUNNY     36  26  66 S10       30.29S WCI  28

$$

UTZ011>015-024>027-151900-

CENTRAL/NORTHEAST UTAH

CITY           SKY/WX    TMP DP  RH WIND       PRES   REMARKS
PROVO AIRPORT  SUNNY     32  26  78 W3        30.31F
MOAB/CANYONLAN SUNNY     38  13  35 SE9       30.33F WCI  31
DELTA          MOSUNNY   30  21  69 CALM      30.31F
PRICE          SUNNY     36  16  44 SE5       30.32F WCI  32
RICHFIELD      SUNNY     30  18  59 CALM      30.32
ROOSEVELT      SUNNY     30  18  59 E3        30.34F
VERNAL         SUNNY     30  18  60 CALM      30.32F

$$

UTZ013>016-019>022-027-151900-

SOUTHERN UTAH

CITY           SKY/WX    TMP DP  RH WIND       PRES   REMARKS
BRYCE CANYON   SUNNY     45 -10   9 SW3       30.33F
CEDAR CITY     SUNNY     33  16  49 CALM      30.29F
MILFORD        SUNNY     31  20  63 S14       30.29F WCI  21
ST GEORGE      CLEAR     38  17  42 S5        30.35F WCI  34
HANKSVILLE     SUNNY     32  12  43 CALM      30.39F
KANAB          SUNNY     45   3  18 NE2       30.37
BLANDING         N/A     39   4  23 S3        30.40F

$$

REGIONAL REPORTS     COLORADO/ARIZONA

CITY           SKY/WX    TMP DP  RH WIND       PRES   REMARKS
CRAIG, CO      CLOUDY    26  15  63 CALM      30.28F
GRAND JUNCTION SUNNY     36  13  38 E5        30.36F WCI  32
RIFLE, CO      SUNNY     29  11  47 CALM      30.38F
MONTROSE, CO   SUNNY     34  12  40 SE5       30.38F WCI  30
CORTEZ, CO     SUNNY     37  12  35 CALM      30.34F
COLORADO CITY    N/A     50  10  20 SE5       30.34F
PAGE, AZ       SUNNY     38  14  37 N5        30.35S WCI  34
GRAND CANYON   SUNNY     50  -5  10 CALM      30.34F
KINGMAN, AZ    SUNNY     56  11  16 N6        30.28S
FLAGSTAFF, AZ  SUNNY     48  -8   9 NE6       30.34F

$$

REGIONAL REPORTS    NEVADA/IDAHO/WYOMING

CITY           SKY/WX    TMP DP  RH WIND       PRES   REMARKS
LAS VEGAS, NV  MOSUNNY   54  17  23 NE3       30.28F
ELY, NY        SUNNY     40   6  24 S7        30.27F
ELKO, NV       MOSUNNY   23  16  74 CALM      30.28F
POCATELLO, ID  FOG       18  16  92 NE7       30.27F VSB 1/2 WCI   9
BURLEY, ID     MOSUNNY   26  22  84 E5        30.24F WCI  20
FORT BRIDGER,    N/A     42   3  19 W21G29    30.23R
EVANSTON, WY   CLOUDY    28  14  55 SW13      30.23F WCI  17
ROCK SPRINGS,  CLOUDY    36  11  35 SW13      30.18F WCI  27

$$



USA.gov is the U.S. government's official web portal to all federal, state and local government web resources and services.